#timestamp,LO_Frequency,Hit,StdDev 
1682686815.9,286046996.6,N
1682686835.7,286046999.4,N
1682686855.5,286046997.3,N
1682686875.4,286046997.5,N
1682686895.2,286046997.9,N
1682686915.0,286046997.9,N
1682686916.0,286046997.9,N
1682686935.8,286046997.2,N
1682686955.6,286046997.3,N
1682686975.5,286046997.2,N
1682686995.3,286046997.9,N
1682687015.1,286046995.3,Y
1682687035.9,286046999.5,P
1682687055.7,286046997.0,P
1682687075.6,286046997.2,N
1682687095.4,286046997.3,N
1682687115.2,286046997.8,N
1682687135.1,286046997.6,N
1682687136.0,286046997.6,Y
1682687155.8,286046998.3,P
1682687175.7,286047001.1,P
1682687195.5,286046998.2,N
1682687215.3,286046998.4,N
1682687235.2,286046998.6,N
1682687255.0,286046998.2,N
1682687255.9,286046998.2,N
1682687275.7,286046998.3,N
1682687295.6,286047000.6,N
1682687315.4,286046998.1,N
1682687335.3,286046998.6,N
1682687355.1,286046998.3,N
1682687356.0,286046998.3,N
1682687375.8,286046998.4,N
1682687395.7,286046998.8,N
1682687415.5,286046998.4,N
1682687435.3,286046998.4,N
1682687455.2,286046998.8,N
1682687475.0,286046999.0,N
1682687475.9,286046999.0,N
1682687495.8,286046998.9,N
1682687515.6,286046998.9,N
1682687535.4,286046999.3,N
1682687555.3,286046998.9,N
1682687575.1,286046999.6,N
1682687595.9,286046999.2,N
1682687615.7,286046999.2,N
1682687635.5,286046999.1,N
1682687655.4,286046999.6,N
1682687675.2,286046999.6,N
1682687695.0,286046998.9,N
1682687695.9,286046998.9,N
1682687715.8,286046999.0,N
1682687735.6,286046996.5,Y
1682687755.5,286046998.4,P
1682687775.3,286046998.4,P
1682687795.1,286047001.2,P
1682687815.9,286047000.2,N
1682687835.7,286047001.2,N
1682687855.5,286047001.0,N
1682687875.4,286047000.7,N
1682687895.2,286047000.5,N
1682687915.1,286046999.8,N
1682687916.0,286046999.8,N
1682687935.8,286047001.0,N
1682687955.6,286047000.1,N
1682687975.5,286047001.0,N
1682687995.3,286047000.1,N
1682688015.1,286047000.4,N
1682688035.9,286047000.2,N
1682688055.7,286047002.1,N
1682688075.6,286047001.9,N
1682688095.4,286047000.1,N
1682688115.2,286047002.6,N
1682688135.1,286047000.3,N
1682688136.0,286047000.3,N
1682688155.8,286046999.8,N
1682688175.6,286047000.2,N
1682688195.5,286047002.6,N
1682688215.3,286047002.4,N
1682688235.2,286046999.9,N
1682688255.9,286047002.8,N
1682688275.7,286047000.6,N
1682688295.6,286046999.7,N
1682688315.4,286047000.6,N
1682688335.2,286047000.9,N
1682688355.1,286047000.5,N
1682688356.0,286047000.5,N
1682688375.8,286047002.2,N
1682688395.7,286047002.4,N
1682688415.5,286047002.7,N
1682688435.3,286047002.7,N
1682688455.2,286047002.4,N
1682688475.0,286046999.9,N
1682688475.9,286046999.9,N
1682688495.7,286047000.0,N
1682688515.6,286046999.7,N
1682688535.4,286047002.4,N
1682688555.3,286046999.9,N
1682688575.1,286047000.7,N
1682688576.0,286047000.7,N
1682688595.8,286047000.8,N
1682688615.7,286047000.9,N
1682688635.5,286047000.7,N
1682688655.3,286047000.5,N
1682688675.2,286047001.0,N
1682688695.0,286047000.0,N
1682688695.9,286047000.0,N
1682688715.8,286047000.7,N
1682688735.6,286047000.7,N
1682688755.4,286047000.9,N
1682688775.3,286046998.1,N
1682688795.1,286047000.0,N
1682688815.8,286046999.7,N
1682688835.7,286047002.4,N
1682688855.5,286047000.1,N
1682688875.4,286046999.9,N
1682688895.2,286047000.1,N
1682688915.0,286047000.3,N
1682688915.9,286047000.3,N
1682688935.8,286047002.8,N
1682688955.6,286046998.5,N
1682688975.4,286047000.6,N
1682688995.3,286047001.2,N
1682689015.1,286047001.2,N
1682689035.9,286047000.7,N
1682689055.7,286047001.2,N
1682689075.5,286047000.8,N
1682689095.4,286046998.2,N
1682689115.2,286046998.8,N
1682689135.0,286046999.3,N
1682689135.9,286046999.3,N
1682689155.8,286046998.8,N
1682689175.6,286046999.0,N
1682689195.5,286046999.3,N
1682689215.3,286046999.1,N
1682689235.1,286046996.6,Y
1682689255.9,286046999.3,P
1682689275.7,286046997.0,P
1682689295.5,286046999.6,N
1682689315.4,286046997.8,N
1682689335.2,286046995.4,Y
1682689355.1,286046997.3,P
1682689356.0,286046997.3,P
1682689375.8,286046997.6,P
1682689395.6,286046997.6,Y
1682689415.5,286046998.8,P
1682689435.3,286046999.0,N
1682689455.2,286046999.2,N
1682689475.9,286046999.6,N
1682689495.7,286046996.5,Y
1682689515.6,286046999.1,P
1682689535.4,286046999.2,P
1682689555.2,286046996.5,P
1682689575.1,286046998.9,N
1682689576.0,286046998.9,N
1682689595.8,286046999.6,N
1682689615.7,286046998.4,N
1682689635.5,286046996.6,Y
1682689655.3,286046998.3,P
1682689675.2,286047000.7,P
1682689695.0,286046998.7,N
1682689695.9,286046998.7,N
1682689715.7,286046998.4,N
1682689735.6,286046998.2,N
1682689755.4,286046998.7,N
1682689775.3,286046999.2,N
1682689795.1,286046999.2,N
1682689796.0,286046999.2,N
1682689815.8,286046996.6,Y
1682689835.7,286046996.7,P
1682689855.5,286046996.9,N
1682689875.4,286046997.1,N
1682689895.2,286046997.4,N
1682689915.0,286046997.3,Y
1682689915.9,286046997.3,P
1682689935.8,286047000.2,P
1682689955.6,286047000.3,N
1682689975.4,286047000.2,N
1682689995.3,286047000.6,N
1682690015.1,286047000.4,N
1682690035.9,286047001.0,N
1682690055.7,286046998.3,N
1682690075.5,286046999.3,N
1682690095.4,286046999.1,N
1682690115.2,286046998.7,N
1682690135.1,286046998.8,N
1682690136.0,286046998.8,N
1682690155.8,286047000.5,N
1682690175.6,286047001.1,N
1682690195.5,286046999.0,N
1682690215.3,286046998.8,N
1682690235.1,286046999.1,N
1682690255.9,286046998.1,N
1682690275.7,286046999.3,N
1682690295.6,286046999.3,N
1682690315.4,286046999.2,N
1682690335.2,286046997.1,N
1682690355.1,286046997.7,N
1682690356.0,286046997.7,N
1682690375.8,286046995.6,Y
1682690395.7,286046998.0,P
